Weather History for Boscobel, WI

Change the Weather History Date:

Monday, December 5, 2011

  Actual Average (KPDC) Record (KPDC)
Temperature  
Mean Temperature 29 °F -  
Max Temperature 30 °F 36 °F 66 °F (2001)
Min Temperature 28 °F 21 °F -9 °F (2005)
Degree Days  
Heating Degree Days 36    
Moisture  
Dew Point 25 °F    
Average Humidity 82    
Maximum Humidity 86    
Minimum Humidity 79    
Precipitation  
Precipitation 0.00 in - - ()
Sea Level Pressure  
Sea Level Pressure 30.38 in    
Wind  
Wind Speed 4 mph (NNW)    
Max Wind Speed 9 mph    
Max Gust Speed -    
Visibility 9 miles    
Events      
Averages and records for this station are not official NWS values.
T = Trace of Precipitation, MM = Missing Value Source: NWS Daily Summary

Daily Weather History Graph

Daily Weather History Graph

Search for Another Location

Airport:

Trip Planner

Search our weather history database for the weather conditions in past years. The results will help you decide how hot, cold, wet, or windy it might be!

Date:

Astronomy

Dec. 05, 2011 Rise Set
Actual Time 7:18 AM CST 4:27 PM CST
Civil Twilight 6:46 AM CST 4:59 PM CST
Nautical Twilight 6:10 AM CST 5:35 PM CST
Astronomical Twilight 5:36 AM CST 6:09 PM CST
Moon 1:30 PM CST (12/5) 2:35 AM CST (12/5)
Length of Visible Light 10h 13m
Length of Day
9h 09m
Waxing Gibbous, 80% of the Moon is Illuminated
Dec 5
Waxing Gibbous
Dec 10
Full
Dec 17
Last Quarter
Dec 24
New
Jan 1
First Quarter

Hourly Weather History & Observations

Time (CST) Temp. Windchill Dew Point Humidity Pressure Visibility Wind Dir Wind Speed Gust Speed Precip Events Conditions
12:45 AM 30.2 °F - 26.6 °F 86% 30.29 in 8.0 mi Calm Calm - N/A   Overcast
12:53 AM 30.0 °F 25.2 °F 26.1 °F 85% 30.32 in 8.0 mi NW 4.6 mph - N/A   Overcast
1:53 AM 30.0 °F 23.2 °F 25.0 °F 82% 30.33 in 7.0 mi WNW 6.9 mph - N/A   Overcast
2:53 AM 28.9 °F 23.9 °F 25.0 °F 85% 30.34 in 7.0 mi WNW 4.6 mph - N/A   Overcast
3:24 AM 28.4 °F 22.2 °F 24.8 °F 86% 30.30 in 8.0 mi WNW 5.8 mph - N/A   Overcast
4:53 AM 28.9 °F 25.2 °F 24.1 °F 82% 30.37 in 9.0 mi Variable 3.5 mph - N/A   Overcast
5:53 AM 28.0 °F 24.2 °F 24.1 °F 85% 30.38 in 10.0 mi NW 3.5 mph - N/A   Overcast
6:53 AM 28.0 °F 21.7 °F 23.0 °F 81% 30.36 in 10.0 mi North 5.8 mph - N/A   Overcast
7:53 AM 28.0 °F 21.7 °F 24.1 °F 85% 30.38 in 8.0 mi NNW 5.8 mph - N/A   Overcast
8:53 AM 28.9 °F 25.2 °F 24.1 °F 82% 30.41 in 8.0 mi NNW 3.5 mph - N/A   Overcast
10:26 AM 28.4 °F 22.2 °F 24.8 °F 86% 30.40 in 9.0 mi North 5.8 mph - N/A   Overcast
10:53 AM 30.0 °F 25.2 °F 25.0 °F 82% 30.42 in 9.0 mi NNW 4.6 mph - N/A   Overcast
11:53 AM 30.0 °F 24.1 °F 25.0 °F 82% 30.40 in 8.0 mi NW 5.8 mph - N/A   Overcast
12:53 PM 30.0 °F 24.1 °F 25.0 °F 82% 30.40 in 9.0 mi NNW 5.8 mph - N/A   Overcast
1:53 PM 30.0 °F 21.7 °F 25.0 °F 82% 30.38 in 9.0 mi NNW 9.2 mph - N/A   Overcast
2:53 PM 30.0 °F 21.7 °F 25.0 °F 82% 30.39 in 10.0 mi NNW 9.2 mph - N/A   Overcast
4:53 PM 30.0 °F 25.2 °F 25.0 °F 82% 30.41 in 10.0 mi NW 4.6 mph - N/A   Overcast
5:53 PM 30.0 °F 24.1 °F 25.0 °F 82% 30.41 in 9.0 mi NNW 5.8 mph - N/A   Overcast
6:53 PM 30.0 °F 25.2 °F 25.0 °F 82% 30.41 in 9.0 mi North 4.6 mph - N/A   Overcast
7:38 PM 30.2 °F 26.7 °F 24.8 °F 80% 30.38 in 10.0 mi NNE 3.5 mph - N/A   Overcast
7:53 PM 30.0 °F 24.1 °F 25.0 °F 82% 30.42 in 10.0 mi NNE 5.8 mph - N/A   Overcast
9:04 PM 30.2 °F - 24.8 °F 80% 30.40 in 10.0 mi Calm Calm - N/A   Overcast
9:53 PM 30.0 °F - 24.1 °F 79% 30.43 in 10.0 mi Calm Calm - N/A   Overcast
10:53 PM 30.0 °F - 24.1 °F 79% 30.43 in 10.0 mi Calm Calm - N/A   Overcast
11:53 PM 30.0 °F - 24.1 °F 79% 30.41 in 10.0 mi Calm Calm - N/A   Overcast